CW2751 Weather Reports


Display with metric or nautical units.
time (UTC)temp
F
wind
direction
speed
MPH
gust
MPH
rain 1hr
in
rain 24hr
in
rain mn
in
humidity
%
barometer
mb
20260905060048 74 210 5.0 0.0 0.00 0.00 0.00 52 1000.8
20260905054551 74 190 1.0 0.0 0.00 0.00 0.00 53 1000.9
20260905053055 75 126 2.0 0.0 0.00 0.00 0.00 51 1000.7
20260905051554 76 171 2.0 0.0 0.00 0.00 0.00 48 1000.6
20260905050056 77 207 3.0 0.0 0.00 0.00 0.00 46 1001.2
20260905044600 77 134 4.0 0.0 0.00 0.00 0.00 45 1001.3
20260905044505 77 207 4.0 0.0 0.00 0.00 0.00 45 1001.3
20260905043101 78 210 4.0 0.0 0.00 0.00 0.00 45 1001.4
20260905041558 78 188 4.0 0.0 0.00 0.00 0.00 45 1001.3
20260905040006 78 166 4.0 0.0 0.00 0.00 0.00 46 1001.8
20260905034530 79 198 3.0 0.0 0.00 0.00 0.00 45 1001.8
20260905033024 79 196 1.0 0.0 0.00 0.00 0.00 45 1001.5
20260905031514 79 142 2.0 0.0 0.00 0.00 0.00 44 1001.2
20260905030042 80 131 2.0 0.0 0.00 0.00 0.00 44 1001.6
20260905024543 81 182 2.0 0.0 0.00 0.00 0.00 42 1001.2
20260905023104 82 162 1.0 0.0 0.00 0.00 0.00 41 1001.0
20260905021506 83 198 2.0 0.0 0.00 0.00 0.00 39 1000.9
20260905020022 84 181 3.0 0.0 0.00 0.00 0.00 37 1000.8
20260905014546 85 178 3.0 0.0 0.00 0.00 0.00 36 1000.3
20260905013059 87 185 4.0 0.0 0.00 0.00 0.00 35 1000.0
20260905011519 88 161 6.0 0.0 0.00 0.00 0.00 32 999.8
20260905010034 91 120 3.0 0.0 0.00 0.00 0.00 30 999.9
20260905004548 92 171 2.0 0.0 0.00 0.00 0.00 28 999.3
20260905003055 92 158 1.0 0.0 0.00 0.00 0.00 27 999.5
20260905001505 93 164 2.0 0.0 0.00 0.00 0.00 28 999.2
20260905000011 94 154 3.0 0.0 0.00 0.00 0.00 26 999.1
20260904234530 95 144 3.0 0.0 0.00 0.00 0.00 24 999.1
20260904233031 96 171 3.0 0.0 0.00 0.00 0.00 23 998.6
20260904231601 97 151 2.0 0.0 0.00 0.00 0.00 23 998.5
20260904231501 97 96 2.0 0.0 0.00 0.00 0.00 23 998.5
20260904230012 96 137 3.0 0.0 0.00 0.00 0.00 25 998.4
20260904224507 98 137 4.0 0.0 0.00 0.00 0.00 22 998.2
20260904223013 99 157 4.0 0.0 0.00 0.00 0.00 22 998.2
20260904221515 100 233 5.0 0.0 0.00 0.00 0.00 20 997.9
20260904220041 101 148 4.0 0.0 0.00 0.00 0.00 20 997.7
20260904214535 101 166 5.0 0.0 0.00 0.00 0.00 19 997.8
20260904213005 100 130 6.0 0.0 0.00 0.00 0.00 20 998.1
20260904211511 97 148 6.0 0.0 0.00 0.00 0.00 23 998.4
20260904210009 98 159 4.0 0.0 0.00 0.00 0.00 23 998.7
20260904204513 97 171 5.0 0.0 0.00 0.00 0.00 20 998.9
20260904203047 97 203 4.0 0.0 0.00 0.00 0.00 21 999.0
20260904201541 97 186 5.0 0.0 0.00 0.00 0.00 20 999.1
20260904200045 97 258 5.0 0.0 0.00 0.00 0.00 19 999.0
20260904194551 97 178 7.0 0.0 0.00 0.00 0.00 20 999.3
20260904193014 96 179 8.0 0.0 0.00 0.00 0.00 17 999.4
20260904191516 98 199 8.0 0.0 0.00 0.00 0.00 16 999.4
20260904190035 98 229 7.0 0.0 0.00 0.00 0.00 16 999.0
20260904184537 98 183 6.0 0.0 0.00 0.00 0.00 16 999.1
20260904183004 97 213 6.0 0.0 0.00 0.00 0.00 18 999.4
20260904181534 97 183 5.0 0.0 0.00 0.00 0.00 19 999.7
20260904180055 95 209 5.0 0.0 0.00 0.00 0.00 21 999.5
20260904174555 94 216 3.0 0.0 0.00 0.00 0.00 23 999.6
20260904173046 92 250 3.0 0.0 0.00 0.00 0.00 24 1000.0
20260904171511 90 189 4.0 0.0 0.00 0.00 0.00 27 1000.5
20260904170016 88 277 5.0 0.0 0.00 0.00 0.00 29 1001.0
20260904164519 87 196 4.0 0.0 0.00 0.00 0.00 33 1001.1
20260904163042 87 188 6.0 0.0 0.00 0.00 0.00 35 1001.0
20260904161551 85 237 7.0 0.0 0.00 0.00 0.00 34 1001.1
20260904160012 84 277 4.0 0.0 0.00 0.00 0.00 40 1000.8
20260904154544 81 251 5.0 0.0 0.00 0.00 0.00 44 1001.1
20260904153008 80 214 6.0 0.0 0.00 0.00 0.00 46 1001.2
20260904151557 78 246 6.0 0.0 0.00 0.00 0.00 47 1001.4
20260904150030 77 214 8.0 0.0 0.00 0.00 0.00 48 1001.0
20260904144556 76 207 8.0 0.0 0.00 0.00 0.00 50 1001.0
20260904143009 75 164 8.0 0.0 0.00 0.00 0.00 53 1001.1
20260904141538 74 227 8.0 0.0 0.00 0.00 0.00 55 1001.4
20260904140046 73 203 7.0 0.0 0.00 0.00 0.00 56 1001.0
20260904134554 72 185 8.0 0.0 0.00 0.00 0.00 57 1001.2
20260904133047 71 192 7.0 0.0 0.00 0.00 0.00 58 1001.0
20260904131553 70 206 5.0 0.0 0.00 0.00 0.00 60 1000.9
20260904130053 70 193 4.0 0.0 0.00 0.00 0.00 61 999.7
20260904124523 70 169 5.0 0.0 0.00 0.00 0.00 61 999.5
20260904123029 70 161 5.0 0.0 0.00 0.00 0.00 60 999.5
20260904121529 70 202 4.0 0.0 0.00 0.00 0.00 60 999.1
20260904120038 70 178 4.0 0.0 0.00 0.00 0.00 59 998.5
20260904114544 71 151 3.0 0.0 0.00 0.00 0.00 58 998.5
20260904113033 71 161 5.0 0.0 0.00 0.00 0.00 57 998.2
20260904111532 71 190 4.0 0.0 0.00 0.00 0.00 57 998.5
20260904110044 72 185 4.0 0.0 0.00 0.00 0.00 57 998.0
20260904104512 72 162 4.0 0.0 0.00 0.00 0.00 55 998.0
20260904103040 73 227 4.0 0.0 0.00 0.00 0.00 54 997.9
20260904101536 73 183 4.0 0.0 0.00 0.00 0.00 54 997.9
20260904100058 73 154 4.0 0.0 0.00 0.00 0.00 54 998.0
20260904100001 73 210 4.0 0.0 0.00 0.00 0.00 54 998.0
20260904094540 73 174 4.0 0.0 0.00 0.00 0.00 55 997.9
20260904093053 72 142 4.0 0.0 0.00 0.00 0.00 57 998.0
20260904091533 71 155 3.0 0.0 0.00 0.00 0.00 59 998.2
20260904090032 70 140 2.0 0.0 0.00 0.00 0.00 62 998.4
20260904084528 70 137 2.0 0.0 0.00 0.00 0.00 65 998.5
20260904083029 70 128 3.0 0.0 0.00 0.00 0.00 67 998.6
20260904081524 70 166 2.0 0.0 0.00 0.00 0.00 67 998.9
20260904080031 70 110 2.0 0.0 0.00 0.00 0.00 66 999.0
20260904074528 70 161 2.0 0.0 0.00 0.00 0.00 65 999.0
20260904073103 70 165 1.0 0.0 0.00 0.00 0.00 64 999.0
20260904071506 70 152 1.0 0.0 0.00 0.00 0.00 63 999.1
20260904070035 70 178 2.0 0.0 0.00 0.00 0.00 62 999.5
20260904064507 71 135 3.0 0.0 0.00 0.00 0.00 60 999.6
20260904063024 72 137 1.0 0.0 0.00 0.00 0.00 57 999.8
20260904061540 73 100 2.0 0.0 0.00 0.00 0.00 55 999.3